Weather History for Andalusia, AL

Change the Weather History Date:

Saturday, May 11, 2013

  Actual Average (KCEW) Record (KCEW)
Temperature  
Mean Temperature 68 °F -  
Max Temperature 75 °F 83 °F 96 °F (2011)
Min Temperature 62 °F 55 °F 45 °F (1990)
Cooling Degree Days 4    
Growing Degree Days 18 (Base 50)    
Moisture  
Dew Point 62 °F    
Average Humidity 81    
Maximum Humidity 94    
Minimum Humidity 62    
Precipitation  
Precipitation 0.01 in - - ()
Sea Level Pressure  
Sea Level Pressure 29.99 in    
Wind  
Wind Speed 2 mph (WSW)    
Max Wind Speed 8 mph    
Max Gust Speed -    
Visibility 7 miles    
Events Rain    
Averages and records for this station are not official NWS values.
T = Trace of Precipitation, MM = Missing Value Source: NWS Daily Summary

Daily Weather History Graph

Daily Weather History Graph

Search for Another Location

Airport:

Trip Planner

Search our weather history database for the weather conditions in past years. The results will help you decide how hot, cold, wet, or windy it might be!

Date:

Astronomy

May. 11, 2013 Rise Set
Actual Time 5:52 AM CDT 7:32 PM CDT
Civil Twilight 5:25 AM CDT 7:58 PM CDT
Nautical Twilight 4:54 AM CDT 8:30 PM CDT
Astronomical Twilight 4:20 AM CDT 9:03 PM CDT
Moon 7:01 AM CDT (5/11) 9:09 PM CDT (5/11)
Length of Visible Light 14h 32m
Length of Day
13h 39m
Waxing Crescent, 3% of the Moon is Illuminated
May 11
Waxing Crescent
May 17
First Quarter
May 24
Full
May 31
Last Quarter
Jun 8
New

Hourly Weather History & Observations

Time (CDT) Temp. Dew Point Humidity Pressure Visibility Wind Dir Wind Speed Gust Speed Precip Events Conditions
12:06 AM 69.8 °F 64.4 °F 83% 30.03 in 10.0 mi Calm Calm - 0.00 in Rain Light Rain
12:20 AM 68.0 °F 64.4 °F 88% 30.03 in 10.0 mi South 3.5 mph - 0.00 in   Mostly Cloudy
12:56 AM 68.0 °F 64.0 °F 87% 30.02 in 8.0 mi SW 3.5 mph - 0.00 in   Scattered Clouds
1:56 AM 66.0 °F 63.0 °F 90% 29.99 in 6.0 mi Calm Calm - N/A   Clear
2:56 AM 66.0 °F 62.1 °F 87% 29.98 in 7.0 mi Calm Calm - N/A   Clear
3:56 AM 64.0 °F 60.1 °F 87% 29.97 in 4.0 mi Calm Calm - N/A   Clear
4:15 AM 64.4 °F 60.8 °F 88% 29.98 in 1.8 mi Calm Calm - 0.01 in   Clear
4:19 AM 64.4 °F 60.8 °F 88% 29.98 in 1.0 mi Calm Calm - 0.01 in   Clear
4:28 AM 62.6 °F 60.8 °F 94% 29.98 in 0.8 mi Calm Calm - 0.01 in   Clear
4:32 AM 62.6 °F 60.8 °F 94% 29.98 in 1.5 mi Calm Calm - 0.01 in   Clear
4:34 AM 64.4 °F 60.8 °F 88% 29.98 in 3.0 mi Calm Calm - 0.01 in   Clear
4:56 AM 63.0 °F 59.0 °F 87% 29.96 in 7.0 mi Calm Calm - 0.01 in   Clear
5:23 AM 62.6 °F 57.2 °F 82% 29.98 in 2.5 mi Calm Calm - N/A   Clear
5:31 AM 62.6 °F 57.2 °F 82% 29.98 in 4.0 mi Calm Calm - N/A   Clear
5:56 AM 62.1 °F 57.9 °F 86% 29.98 in 6.0 mi Calm Calm - N/A   Clear
6:56 AM 66.0 °F 61.0 °F 84% 29.99 in 7.0 mi WNW 3.5 mph - N/A   Clear
7:56 AM 69.1 °F 63.0 °F 81% 30.01 in 9.0 mi West 3.5 mph - N/A   Clear
8:56 AM 71.1 °F 63.0 °F 75% 30.01 in 10.0 mi West 4.6 mph - N/A   Clear
9:56 AM 71.1 °F 62.1 °F 73% 30.03 in 10.0 mi West 8.1 mph - N/A   Mostly Cloudy
10:56 AM 71.1 °F 62.1 °F 73% 30.01 in 10.0 mi WSW 4.6 mph - 0.00 in Rain Light Rain
11:56 AM 71.1 °F 62.1 °F 73% 29.99 in 10.0 mi South 3.5 mph - 0.00 in   Scattered Clouds
12:56 PM 71.1 °F 62.1 °F 73% 30.03 in 10.0 mi Variable 4.6 mph - N/A   Overcast
1:56 PM 72.0 °F 63.0 °F 73% 30.02 in 10.0 mi West 4.6 mph - N/A   Overcast
2:56 PM 73.9 °F 63.0 °F 68% 29.99 in 10.0 mi West 5.8 mph - N/A   Mostly Cloudy
3:56 PM 73.9 °F 62.1 °F 66% 29.96 in 10.0 mi West 6.9 mph - N/A   Clear
4:56 PM 75.9 °F 62.1 °F 62% 29.95 in 10.0 mi WSW 4.6 mph - N/A   Clear
5:56 PM 75.0 °F 63.0 °F 66% 29.95 in 10.0 mi Calm Calm - N/A   Partly Cloudy
6:56 PM 73.9 °F 63.0 °F 68% 29.95 in 10.0 mi Calm Calm - N/A   Mostly Cloudy
7:56 PM 71.1 °F 64.0 °F 78% 29.97 in 10.0 mi Calm Calm - N/A   Clear
8:56 PM 70.0 °F 64.9 °F 84% 30.00 in 10.0 mi Calm Calm - N/A   Clear
9:56 PM 70.0 °F 64.9 °F 84% 30.00 in 10.0 mi West 3.5 mph - N/A   Partly Cloudy
10:56 PM 68.0 °F 64.0 °F 87% 30.00 in 8.0 mi Calm Calm - N/A   Clear
11:56 PM 68.0 °F 64.0 °F 87% 30.00 in 8.0 mi West 3.5 mph - N/A   Clear